WB5OMR-9 Weather Reports


time (UTC)temp
C
wind
direction
speed
KPH
gust
KPH
rain 1hr
cm
rain 24hr
cm
rain mn
cm
humidity
%
barometer
mb
20260905052253 28 157 0.0 0.0 0.00 0.00 0.00 67 1013.5
20260905051250 29 157 0.0 0.0 0.00 0.00 0.00 66 1013.5
20260905050249 29 135 0.0 0.0 0.00 0.00 0.00 65 1013.9
20260905045248 29 135 0.0 0.0 0.00 0.00 0.00 63 1013.9
20260905044247 29 135 0.0 0.0 0.00 0.00 0.00 62 1013.9
20260905043246 30 112 0.0 0.0 0.00 0.00 0.00 61 1013.9
20260905042246 30 157 0.0 0.0 0.00 0.00 0.00 60 1013.5
20260905041244 30 112 0.0 0.0 0.00 0.00 0.00 60 1013.5
20260905040243 30 157 0.0 0.0 0.00 0.00 0.00 60 1013.5
20260905035242 30 202 0.0 0.0 0.00 0.00 0.00 59 1013.5
20260905034240 30 135 0.0 0.0 0.00 0.00 0.00 59 1013.5
20260905033239 30 135 0.0 0.0 0.00 0.00 0.00 59 1013.5
20260905032156 30 157 0.0 0.0 0.00 0.00 0.00 58 1013.5
20260905031112 31 135 0.0 0.0 0.00 0.00 0.00 57 1013.2
20260905030111 31 135 0.0 0.0 0.00 0.00 0.00 56 1012.9
20260905025110 31 45 0.0 0.0 0.00 0.00 0.00 56 1012.9
20260905024108 31 67 0.0 0.0 0.00 0.00 0.00 56 1012.5
20260905023107 31 45 0.0 0.0 0.00 0.00 0.00 56 1011.9
20260905022105 31 67 0.0 0.0 0.00 0.00 0.00 56 1011.5
20260905021105 31 135 0.0 0.0 0.00 0.00 0.00 55 1011.9
20260905020104 32 112 0.0 0.0 0.00 0.00 0.00 54 1012.2
20260905015102 32 67 0.0 0.0 0.00 0.00 0.00 54 1012.5
20260905014101 32 45 0.0 0.0 0.00 0.00 0.00 53 1012.9
20260905013100 32 67 0.0 0.0 0.00 0.00 0.00 53 1012.5
20260905012059 32 112 0.0 0.0 0.00 0.00 0.00 53 1012.2
20260905011058 32 45 0.0 0.0 0.00 0.00 0.00 53 1012.2
20260905010057 33 45 0.0 0.0 0.00 0.00 0.00 52 1012.2
20260905005056 33 67 0.0 0.0 0.00 0.00 0.00 52 1011.9
20260905004054 33 45 0.0 0.0 0.00 0.00 0.00 52 1011.9
20260905003053 33 67 0.0 0.0 0.00 0.00 0.00 51 1011.9
20260905002051 34 112 0.0 0.0 0.00 0.00 0.00 50 1011.9
20260905001008 34 67 0.0 0.0 0.00 0.00 0.00 49 1011.9
20260905000007 35 67 0.0 0.0 0.00 0.00 0.00 48 1011.9
20260904235006 36 45 0.0 0.0 0.00 0.00 0.00 47 1011.9
20260904234005 36 67 0.0 0.0 0.00 0.00 0.00 46 1011.5
20260904233004 37 90 0.0 0.0 0.00 0.00 0.00 44 1011.2
20260904231920 37 247 0.0 0.0 0.00 0.00 0.00 41 1010.8
20260904230837 37 45 0.0 0.0 0.00 0.00 0.00 41 1010.8
20260904225836 37 112 0.0 0.0 0.00 0.00 0.00 39 1011.2
20260904224835 38 90 0.0 0.0 0.00 0.00 0.00 39 1011.2
20260904223835 38 90 0.0 0.0 0.00 0.00 0.00 41 1011.2
20260904222833 37 45 0.0 0.0 0.00 0.00 0.00 42 1011.5
20260904221832 38 67 0.0 0.0 0.00 0.00 0.00 41 1011.5
20260904220749 39 90 0.0 0.0 0.00 0.00 0.00 40 1011.5
20260904215748 38 90 0.0 0.0 0.00 0.00 0.00 40 1011.5
20260904214747 39 45 0.0 0.0 0.00 0.00 0.00 39 1011.5
20260904213746 39 90 0.0 0.0 0.00 0.00 0.00 38 1011.9
20260904212744 40 90 0.0 0.0 0.00 0.00 0.00 38 1011.9
20260904211743 39 67 0.0 0.0 0.00 0.00 0.00 39 1012.2
20260904210659 40 90 0.0 0.0 0.00 0.00 0.00 38 1012.2
20260904205658 40 67 0.0 0.0 0.00 0.00 0.00 38 1012.2
20260904204657 41 112 0.0 0.0 0.00 0.00 0.00 37 1012.2
20260904203656 40 45 0.0 0.0 0.00 0.00 0.00 39 1012.2
20260904202655 40 157 0.0 0.0 0.00 0.00 0.00 39 1012.5
20260904201655 40 112 0.0 0.0 0.00 0.00 0.00 39 1012.5
20260904200654 40 112 0.0 0.0 0.00 0.00 0.00 39 1012.9
20260904195652 40 157 0.0 0.0 0.00 0.00 0.00 40 1012.9
20260904194651 38 112 0.0 0.0 0.00 0.00 0.00 43 1012.9
20260904193608 38 337 0.0 0.0 0.00 0.00 0.00 44 1013.2
20260904192524 38 112 0.0 0.0 0.00 0.00 0.00 45 1013.2
20260904191441 37 135 0.0 0.0 0.00 0.00 0.00 45 1013.2
20260904190357 37 157 0.0 0.0 0.00 0.00 0.00 45 1013.5
20260904185356 37 135 0.0 0.0 0.00 0.00 0.00 46 1013.5
20260904184355 37 157 0.0 0.0 0.00 0.00 0.00 46 1014.2
20260904183354 37 90 0.0 0.0 0.00 0.00 0.00 46 1013.9
20260904182352 37 180 0.0 0.0 0.00 0.00 0.00 45 1013.2
20260904181351 37 135 0.0 0.0 0.00 0.00 0.00 46 1012.9
20260904180307 36 180 0.0 0.0 0.00 0.00 0.00 48 1013.5
20260904175306 36 135 0.0 0.0 0.00 0.00 0.00 50 1013.5
20260904174305 35 180 0.0 0.0 0.00 0.00 0.00 52 1013.9
20260904173304 35 180 0.0 0.0 0.00 0.00 0.00 53 1014.2
20260904172305 34 180 0.0 0.0 0.00 0.00 0.00 55 1014.2
20260904171302 33 112 0.0 0.0 0.00 0.00 0.00 56 1014.2
20260904170301 33 135 0.0 0.0 0.00 0.00 0.00 58 1014.6
20260904165300 32 157 0.0 0.0 0.00 0.00 0.00 59 1014.6
20260904164259 32 157 0.0 0.0 0.00 0.00 0.00 60 1014.6
20260904163216 32 157 0.0 0.0 0.00 0.00 0.00 60 1014.6
20260904162132 33 135 0.0 0.0 0.00 0.00 0.00 60 1014.6
20260904161132 33 112 0.0 0.0 0.00 0.00 0.00 60 1014.6
20260904160131 32 157 0.0 0.0 0.00 0.00 0.00 62 1014.6
20260904155130 32 157 0.0 0.0 0.00 0.00 0.00 63 1014.6
20260904154128 31 112 0.0 0.0 0.00 0.00 0.00 67 1014.6
20260904153127 31 157 0.0 0.0 0.00 0.00 0.00 66 1014.2
20260904152044 30 180 0.0 0.0 0.00 0.00 0.00 69 1014.2
20260904150959 30 202 0.0 0.0 0.00 0.00 0.00 70 1014.2
20260904145958 30 67 0.0 0.0 0.00 0.00 0.00 70 1014.2
20260904144957 30 67 0.0 0.0 0.00 0.00 0.00 72 1014.2
20260904143956 29 157 0.0 0.0 0.00 0.00 0.00 74 1014.2
20260904142912 29 202 0.0 0.0 0.00 0.00 0.00 77 1014.2
20260904141911 28 135 0.0 0.0 0.00 0.00 0.00 79 1014.2
20260904140910 28 135 0.0 0.0 0.00 0.00 0.00 80 1014.2
20260904135910 27 112 0.0 0.0 0.00 0.00 0.00 81 1014.2
20260904134909 27 112 0.0 0.0 0.00 0.00 0.00 81 1014.2
20260904133908 27 112 0.0 0.0 0.00 0.00 0.00 81 1013.9
20260904132906 27 90 0.0 0.0 0.00 0.00 0.00 82 1013.9
20260904131905 27 67 0.0 0.0 0.00 0.00 0.00 82 1013.9
20260904130904 26 135 0.0 0.0 0.00 0.00 0.00 82 1013.5
20260904125903 26 135 0.0 0.0 0.00 0.00 0.00 82 1013.2
20260904124901 26 112 0.0 0.0 0.00 0.00 0.00 82 1013.2
20260904123900 26 112 0.0 0.0 0.00 0.00 0.00 82 1013.2
20260904122859 26 135 0.0 0.0 0.00 0.00 0.00 82 1013.2
20260904121858 26 112 0.0 0.0 0.00 0.00 0.00 82 1013.2
20260904120815 26 112 0.0 0.0 0.00 0.00 0.00 82 1013.2
20260904115731 26 112 0.0 0.0 0.00 0.00 0.00 82 1012.9
20260904114730 26 112 0.0 0.0 0.00 0.00 0.00 81 1012.9
20260904113729 26 112 0.0 0.0 0.00 0.00 0.00 80 1012.9
20260904112728 26 90 0.0 0.0 0.00 0.00 0.00 80 1012.9
20260904111727 26 112 0.0 0.0 0.00 0.00 0.00 80 1012.5
20260904110726 26 112 0.0 0.0 0.00 0.00 0.00 80 1012.5
20260904105643 26 112 0.0 0.0 0.00 0.00 0.00 80 1012.5
20260904104642 26 135 0.0 0.0 0.00 0.00 0.00 80 1012.2
20260904103558 26 112 0.0 0.0 0.00 0.00 0.00 79 1012.5
20260904102557 26 112 0.0 0.0 0.00 0.00 0.00 79 1012.5
20260904101555 26 112 0.0 0.0 0.00 0.00 0.00 79 1012.5
20260904100554 26 112 0.0 0.0 0.00 0.00 0.00 80 1012.5
20260904095553 26 157 0.0 0.0 0.00 0.00 0.00 80 1012.5
20260904094551 26 135 0.0 0.0 0.00 0.00 0.00 80 1012.5
20260904093550 26 157 0.0 0.0 0.00 0.00 0.00 80 1012.2
20260904092548 26 157 0.0 0.0 0.00 0.00 0.00 79 1012.5
20260904091548 26 135 0.0 0.0 0.00 0.00 0.00 79 1012.5
20260904090547 27 157 0.0 0.0 0.00 0.00 0.00 79 1012.5
20260904085546 27 157 0.0 0.0 0.00 0.00 0.00 79 1012.5
20260904084544 27 157 0.0 0.0 0.00 0.00 0.00 78 1012.5
20260904083543 27 157 0.0 0.0 0.00 0.00 0.00 78 1012.5
20260904082542 27 135 0.0 0.0 0.00 0.00 0.00 78 1012.9
20260904081541 27 112 0.0 0.0 0.00 0.00 0.00 78 1012.9
20260904080540 27 112 0.0 0.0 0.00 0.00 0.00 78 1012.9
20260904075538 27 157 0.0 0.0 0.00 0.00 0.00 78 1012.5
20260904074454 27 157 0.0 0.0 0.00 0.00 0.00 77 1012.9
20260904073411 27 135 0.0 0.0 0.00 0.00 0.00 77 1012.5
20260904072327 27 135 0.0 0.0 0.00 0.00 0.00 77 1012.9
20260904071243 27 157 0.0 0.0 0.00 0.00 0.00 77 1012.9
20260904070242 27 135 0.0 0.0 0.00 0.00 0.00 76 1012.9
20260904065241 27 135 0.0 0.0 0.00 0.00 0.00 75 1013.2
20260904064241 27 112 0.0 0.0 0.00 0.00 0.00 75 1013.2
20260904063240 27 90 0.0 0.0 0.00 0.00 0.00 75 1013.2
20260904062157 27 157 0.0 0.0 0.00 0.00 0.00 74 1013.2
20260904061113 27 157 0.0 0.0 0.00 0.00 0.00 74 1013.2
20260904060112 27 135 0.0 0.0 0.00 0.00 0.00 73 1013.2
20260904055111 27 135 0.0 0.0 0.00 0.00 0.00 73 1013.2
20260904054110 27 135 0.0 0.0 0.00 0.00 0.00 73 1013.2